TimeCDT,TemperatureF,Dew PointF,Humidity,Sea Level PressureIn,VisibilityMPH,Wind Direction,Wind SpeedMPH,Gust SpeedMPH,PrecipitationIn,Events,Conditions,WindDirDegrees,DateUTC
12:56 AM,60.1,45.0,57,29.68,-9999.0,West,11.5,-,N/A,,Unknown,260,2012-10-14 05:56:00
1:56 AM,60.1,46.0,60,29.70,-9999.0,WNW,11.5,21.9,N/A,,Unknown,300,2012-10-14 06:56:00
2:56 AM,57.9,45.0,62,29.73,-9999.0,West,13.8,-,N/A,,Unknown,280,2012-10-14 07:56:00
3:56 AM,59.0,46.0,62,29.78,-9999.0,NW,15.0,21.9,N/A,,Unknown,320,2012-10-14 08:56:00
4:56 AM,57.9,46.0,65,29.80,-9999.0,WNW,13.8,23.0,N/A,,Unknown,300,2012-10-14 09:56:00
5:56 AM,57.9,43.0,58,29.84,-9999.0,NW,16.1,25.3,N/A,,Unknown,310,2012-10-14 10:56:00
6:56 AM,57.9,41.0,53,29.90,-9999.0,NW,13.8,24.2,N/A,,Unknown,320,2012-10-14 11:56:00
7:56 AM,57.0,39.9,53,29.94,-9999.0,NNW,12.7,-,N/A,,Unknown,330,2012-10-14 12:56:00
8:56 AM,62.1,39.0,43,30.00,-9999.0,NNW,13.8,-,N/A,,Unknown,330,2012-10-14 13:56:00
9:56 AM,66.0,37.9,36,30.04,-9999.0,NNW,16.1,31.1,N/A,,Unknown,330,2012-10-14 14:56:00
10:56 AM,70.0,37.0,30,30.06,-9999.0,North,15.0,23.0,N/A,,Unknown,360,2012-10-14 15:56:00
11:56 AM,73.0,37.9,28,30.07,-9999.0,NNW,15.0,27.6,N/A,,Unknown,340,2012-10-14 16:56:00
12:56 PM,75.0,39.0,27,30.08,-9999.0,NNW,15.0,24.2,N/A,,Unknown,340,2012-10-14 17:56:00
1:56 PM,77.0,37.9,24,30.05,-9999.0,NNW,13.8,24.2,N/A,,Unknown,340,2012-10-14 18:56:00
2:56 PM,77.0,39.0,25,30.04,-9999.0,NNW,13.8,20.7,N/A,,Unknown,340,2012-10-14 19:56:00
3:56 PM,78.1,39.9,25,30.03,-9999.0,North,15.0,21.9,N/A,,Unknown,360,2012-10-14 20:56:00
4:56 PM,77.0,39.9,26,30.03,-9999.0,NNW,10.4,19.6,N/A,,Unknown,340,2012-10-14 21:56:00
5:56 PM,75.0,39.0,27,30.04,-9999.0,NW,11.5,-,N/A,,Unknown,320,2012-10-14 22:56:00
6:56 PM,70.0,39.0,32,30.05,-9999.0,NW,5.8,-,N/A,,Unknown,320,2012-10-14 23:56:00
7:56 PM,66.9,39.0,36,30.06,-9999.0,Calm,Calm,-,N/A,,Unknown,0,2012-10-15 00:56:00
8:56 PM,64.0,39.9,41,30.06,-9999.0,Calm,Calm,-,N/A,,Unknown,0,2012-10-15 01:56:00
9:56 PM,55.9,39.9,55,30.07,-9999.0,NNE,3.5,-,N/A,,Unknown,20,2012-10-15 02:56:00
10:56 PM,52.0,39.0,61,30.08,-9999.0,NNE,3.5,-,N/A,,Unknown,20,2012-10-15 03:56:00
11:56 PM,50.0,39.0,66,30.08,-9999.0,North,4.6,-,N/A,,Unknown,360,2012-10-15 04:56:00